Location: Big Prairie
(40.6673°N, 82.0952°W)
Time: 05:51:45
(UTC+00:00)

COSMOS 2455 - Visible Passes

Search period start: 02 July 2022 00:00
Search period end: 12 July 2022 00:00
Orbit: 901 x 908 km, 67.1° (Epoch: 01 July)

Date Brightness Start Highest point End Pass type
(mag) Time Alt. Az. Time Alt. Az. Time Alt. Az.
02 Jul 5.7 06:19:35 10° N 06:22:13 13° NE 06:24:49 10° ENE visible
02 Jul 3.5 08:03:31 10° NNW 08:09:28 59° ENE 08:15:22 10° SE visible
03 Jul 5.5 06:22:54 10° N 06:26:34 16° NE 06:30:12 10° ENE visible
03 Jul 3.0 08:07:26 10° NNW 08:13:30 78° ENE 08:19:30 10° SSE visible
04 Jul 5.2 06:26:27 10° N 06:30:52 21° NE 06:35:15 10° E visible
04 Jul 2.8 08:11:26 10° NNW 08:17:29 79° WSW 08:23:27 10° SSE visible
05 Jul 4.8 06:30:07 10° N 06:35:06 26° NE 06:40:03 10° ESE visible
05 Jul 2.9 08:15:31 10° NW 08:21:25 58° WSW 08:27:15 10° S visible
06 Jul 4.4 06:33:53 10° NNW 06:39:18 33° NE 06:44:40 10° ESE visible
06 Jul 3.2 08:19:41 10° NW 08:25:18 42° WSW 08:30:33 12° S visible
07 Jul 3.9 06:37:40 10° NNW 06:43:25 44° NE 06:49:07 10° SE visible
07 Jul 3.6 08:23:58 10° NW 08:29:08 31° WSW 08:32:19 19° SSW visible
08 Jul 5.5 04:57:40 10° N 05:00:13 13° NE 05:02:47 10° ENE visible
08 Jul 3.3 06:41:33 10° NNW 06:47:30 58° ENE 06:51:35 20° SE visible
08 Jul 4.0 08:28:27 10° WNW 08:32:56 22° WSW 08:34:37 20° SW visible
09 Jul 5.3 05:00:58 10° N 05:04:35 16° NE 05:08:11 10° ENE visible
09 Jul 2.9 06:45:29 10° NNW 06:51:32 78° ENE 06:54:12 35° SE visible
09 Jul 4.3 08:33:15 10° WNW 08:36:42 16° WSW 08:37:16 16° WSW visible
10 Jul 5.0 05:04:30 10° N 05:08:53 20° NE 05:13:14 10° E visible
10 Jul 2.7 06:49:28 10° NNW 06:55:31 80° WSW 06:57:04 52° SSE visible
10 Jul 4.7 08:39:08 10° W 08:40:08 11° W 08:40:08 11° W visible
11 Jul 4.6 05:08:10 10° N 05:13:08 26° NE 05:17:01 14° E visible
11 Jul 2.8 06:53:33 10° NW 06:59:27 59° WSW 07:00:05 56° SW visible
